Вернуться в каталог

STARLINK-31796

АктивенСвязьVLEO
NORAD 59646·PAYLOAD·🇺🇸 United States

Запущен May 3, 2024 с Cape Canaveral Space Force Station

Loading…

Ближайшие Пролёты (ближайшие 24 часа)

TLE

СвежийSource: CelesTrak SupGP

Эпоха: Sep 15, 2026, 03:20 UTC

1 59646C 24082R   26258.13937500  .00063872  00000+0  23135-2 0  2586
2 59646  42.9997 149.8495 0001429 268.7003 188.0887 15.27546139    18

Отслеживайте STARLINK-31796 в реальном времени с AllMySat

Download on the App Store